Fort Campbell, KY

4:23 AM CST on December 06, 2016 (GMT -0600)
Campbell Army Air Field

Weather History for KHOP - January, 2013

Change the Weather History Date:

Wednesday, January 23, 2013

  Actual Average Record
Temperature  
Mean Temperature 34 °F -  
Max Temperature 48 °F 44 °F 68 °F (2002)
Min Temperature 19 °F 25 °F 0 °F (2003)
Degree Days  
Heating Degree Days 32    
Moisture  
Dew Point 19 °F    
Average Humidity 57    
Maximum Humidity 78    
Minimum Humidity 36    
Precipitation  
Precipitation 0.00 in - - ()
Sea Level Pressure  
Sea Level Pressure 30.28 in    
Wind  
Wind Speed 5 mph (WSW)    
Max Wind Speed 14 mph    
Max Gust Speed -    
Visibility 10 miles    
Events      
Averages and records for this station are not official NWS values.
T = Trace of Precipitation, MM = Missing Value Source: NWS Daily Summary

Daily Weather History Graph

Daily Weather History Graph

Search for Another Location

Airport or City:

Trip Planner

Search our weather history database for the weather conditions in past years. The results will help you decide how hot, cold, wet, or windy it might be!

Date:

Astronomy

Jan. 23, 2013 Rise Set
Actual Time 6:57 AM CST 5:06 PM CST
Civil Twilight 6:30 AM CST 5:34 PM CST
Nautical Twilight 5:58 AM CST 6:05 PM CST
Astronomical Twilight 5:28 AM CST 6:36 PM CST
Moon 2:17 PM CST (1/23) 4:07 AM CST (1/23)
Length of Visible Light 11h 03m
Length of Day
10h 08m
Waxing Gibbous, 89% of the Moon is Illuminated
Jan 23
Waxing Gibbous
Jan 26
Full
Feb 3
Last Quarter
Feb 10
New
Feb 17
First Quarter

Hourly Weather History & Observations

Time (CST) Temp. Windchill Dew Point Humidity Pressure Visibility Wind Dir Wind Speed Gust Speed Precip Events Conditions
12:55 AM 21.0 °F 16.2 °F 10.9 °F 65% 30.40 in 10.0 mi NNE 3.5 mph - N/A   Clear
1:55 AM 20.8 °F - 9.5 °F 62% 30.40 in 10.0 mi Calm Calm - N/A   Clear
2:55 AM 19.8 °F 14.7 °F 12.0 °F 72% 30.40 in 10.0 mi NE 3.5 mph - N/A   Clear
3:55 AM 20.3 °F 15.4 °F 7.0 °F 56% 30.39 in 10.0 mi ENE 3.5 mph - N/A   Clear
4:55 AM 20.1 °F 15.2 °F 7.7 °F 59% 30.39 in 10.0 mi SE 3.5 mph - N/A   Scattered Clouds
5:55 AM 19.2 °F 14.1 °F 9.7 °F 66% 30.38 in 10.0 mi East 3.5 mph - N/A   Clear
6:55 AM 19.4 °F 14.3 °F 9.5 °F 65% 30.38 in 10.0 mi ESE 3.5 mph - N/A   Clear
7:55 AM 21.9 °F 15.7 °F 10.4 °F 61% 30.38 in 10.0 mi ESE 4.6 mph - N/A   Unknown
8:55 AM 27.0 °F 18.7 °F 9.5 °F 48% 30.37 in 10.0 mi SE 8.1 mph - N/A   Clear
9:55 AM 32.2 °F 26.7 °F 11.1 °F 42% 30.36 in 10.0 mi SSE 5.8 mph - N/A   Clear
10:55 AM 38.1 °F 35.7 °F 13.8 °F 37% 30.33 in 10.0 mi Variable 3.5 mph - N/A   Clear
11:55 AM 42.8 °F 38.0 °F 17.6 °F 36% 30.28 in 10.0 mi WSW 8.1 mph - N/A   Clear
12:55 PM 45.9 °F 39.7 °F 22.1 °F 39% 30.23 in 10.0 mi SW 13.8 mph - N/A   Clear
1:55 PM 47.7 °F - 24.1 °F 40% 30.20 in 10.0 mi SW 9.2 mph - N/A   Clear
2:55 PM 48.9 °F - 25.5 °F 40% 30.19 in 10.0 mi West 9.2 mph - N/A   Clear
3:55 PM 48.9 °F - 27.5 °F 43% 30.18 in 10.0 mi West 11.5 mph - N/A   Clear
4:55 PM 46.9 °F - 28.8 °F 49% 30.16 in 10.0 mi WSW 11.5 mph - N/A   Clear
5:55 PM 40.5 °F 34.6 °F 28.9 °F 64% 30.17 in 10.0 mi WSW 9.2 mph - N/A   Clear
6:55 PM 43.0 °F 38.2 °F 29.7 °F 59% 30.16 in 10.0 mi WSW 8.1 mph - N/A   Clear
7:55 PM 41.2 °F 37.3 °F 30.2 °F 65% 30.19 in 10.0 mi WNW 5.8 mph - N/A   Clear
8:55 PM 39.4 °F 35.2 °F 29.7 °F 68% 30.20 in 10.0 mi West 5.8 mph - N/A   Partly Cloudy
9:55 PM 36.7 °F 34.1 °F 28.9 °F 74% 30.22 in 10.0 mi West 3.5 mph - N/A   Clear
10:55 PM 36.3 °F 32.5 °F 29.1 °F 75% 30.22 in 10.0 mi WNW 4.6 mph - N/A   Clear
11:55 PM 35.6 °F 30.7 °F 29.3 °F 78% 30.24 in 10.0 mi WNW 5.8 mph - N/A   Clear